Simultaneous Nadir Overpasses (SNOs) Predictions

Prediction of SNOs between GOES-15 and NOAA-19 Satellite Orbit:

Table of predicted SNOs for the next 14.0 days since TLE Epoch: 11/7/2025
Index Date Time (GOES-15) GOES-15 Lat,Lon NOAA-19 Lat,Lon Distance(km) Time Diff (sec)
1 11/08/2025 18:09:12 -0.63, 61.77 -1.60, 57.63 473.36 80
2 11/09/2025 17:56:30 -0.64, 61.79 -0.91, 60.71 124.23 80
3 11/10/2025 17:46:29 -0.66, 61.82 -0.23, 63.79 224.98 80
4 11/13/2025 06:02:18 0.63, 61.76 1.17, 59.36 273.91 80
5 11/14/2025 05:52:17 0.64, 61.78 0.49, 62.45 75.66 80
6 11/15/2025 05:39:35 0.65, 61.80 -0.20, 65.53 425.40 80
7 11/16/2025 18:08:04 -0.60, 61.92 -1.50, 58.04 443.64 80
8 11/17/2025 17:55:22 -0.61, 61.95 -0.81, 61.12 94.62 80
9 11/18/2025 17:45:21 -0.62, 61.97 -0.11, 64.20 254.27 80
10 11/21/2025 06:01:10 0.58, 61.95 1.11, 59.78 248.24 80
